{"data":{"norad_id":62442,"intl_designator":"2024-251L","name":"STARLINK-32291","alt_names":[],"object_type":"PAYLOAD","status":"ACTIVE","operator":null,"country":"US","launch_date":"2024-12-29","launch_site_code":"AFWTR","launch_vehicle":null,"mission":null,"orbit_class":"UNKNOWN","rcs_meters":null,"size_class":null,"mass_kg":null,"dimensions":null,"purposes":["comms"],"wikipedia_slug":null,"has_3d_model":false,"image_url":null,"decayed_at":null,"tle_current":{"epoch":"2026-09-21T20:26:51.506592Z","epoch_age_seconds":58249,"freshness":"FRESH","line1":"1 62442U 24251L   26264.85198503  .00010714  00000+0  32794-3 0  9991","line2":"2 62442  53.1597 143.3078 0001318 103.3941 256.7209 15.34382808 97683","mean_motion":15.34382808,"eccentricity":0.0001318,"inclination_deg":53.1597,"raan_deg":143.3078,"arg_perigee_deg":103.3941,"mean_anomaly_deg":256.7209,"bstar":0.00032794,"rev_number":9768,"period_min":93.848809599019,"perigee_km":461.85270945279,"apogee_km":463.65596840973,"semimajor_km":6840.8913389313,"source":"CELESTRAK","updated_at":"2026-09-22T09:00:49.581961Z"}}}